1502132400.91,14185,21.63,74402.0,2.49,-28.63,-31.11,0,*76
1502132402.16,14186,21.63,74406.5,2.47,-28.53,-30.95,0,*75
1502132403.41,14187,21.63,74404.5,2.47,-28.59,-31.17,0,*75
1502132404.67,14188,21.63,74400.8,2.47,-28.69,-31.11,0,*7F
1502132405.91,14189,21.63,74406.8,2.45,-28.43,-30.95,0,*79
1502132407.18,14190,21.63,74404.5,2.47,-28.25,-30.83,0,*74
1502132408.41,14191,21.63,74404.5,2.47,-28.53,-30.83,0,*74
1502132409.67,14192,21.63,74402.3,2.47,-28.53,-30.95,0,*70
1502132410.89,14193,21.63,74406.0,2.47,-28.53,-31.01,0,*7D
1502132412.13,14194,21.63,74400.5,2.45,-28.43,-30.83,0,*72
1502132413.36,14195,21.63,74404.3,2.47,-28.53,-31.01,0,*7B
1502132414.61,14196,21.63,74404.0,2.47,-28.53,-30.95,0,*74
1502132415.87,14197,21.63,74406.3,2.49,-28.63,-31.11,0,*75
1502132417.07,14198,21.63,74406.0,2.49,-28.53,-31.05,0,*7C
1502132418.31,14199,21.63,74404.0,2.49,-28.31,-30.77,0,*7D
1502132419.53,14200,21.63,74400.0,2.49,-28.47,-31.05,0,*7B
1502132420.78,14201,21.63,74402.3,2.49,-28.47,-30.95,0,*72
1502132422.01,14202,21.63,74400.8,2.49,-28.31,-30.73,0,*78
1502132423.24,14203,21.63,74402.8,2.49,-28.31,-30.73,0,*79
1502132424.47,14204,21.63,74398.8,2.49,-28.15,-30.73,0,*78
1502132425.74,14205,21.63,74404.5,2.47,-28.25,-30.67,0,*71
1502132426.97,14206,21.63,74398.8,2.49,-28.37,-30.89,0,*7F
1502132428.23,14207,21.63,74402.3,2.47,-28.53,-30.95,0,*7F
1502132429.46,14208,21.63,74404.0,2.49,-28.53,-30.89,0,*73
1502132430.71,14209,21.63,74406.0,2.49,-28.47,-30.95,0,*7A
1502132431.93,14210,21.63,74404.5,2.49,-28.47,-31.05,0,*7A
1502132433.16,14211,21.63,74404.0,2.49,-28.63,-31.05,0,*7D
1502132434.4,14212,21.63,74402.8,2.49,-28.37,-30.77,0,*7B
1502132435.64,14213,21.63,74406.8,2.49,-28.37,-30.77,0,*7A
1502132436.87,14214,21.63,74404.5,2.49,-28.09,-30.33,0,*70
1502132438.14,14215,21.63,74406.3,2.49,-28.21,-30.73,0,*7F
1502132439.39,14216,21.63,74406.3,2.51,-28.31,-30.73,0,*74
1502132440.63,14217,21.63,74406.5,2.49,-28.31,-30.77,0,*78
1502132441.89,14218,21.63,74406.0,2.49,-28.21,-30.73,0,*72
1502132443.13,14219,21.63,74406.3,2.49,-28.31,-30.73,0,*72
1502132444.36,14220,21.63,74402.8,2.49,-28.09,-30.45,0,*76
1502132445.59,14221,21.63,74406.8,2.49,-28.09,-30.33,0,*76
1502132446.82,14222,21.63,74404.0,2.49,-28.37,-30.89,0,*79
1502132448.07,14223,21.63,74400.0,2.49,-28.47,-30.95,0,*72
1502132449.31,14224,21.63,74404.3,2.49,-28.37,-30.77,0,*7E
1502132450.57,14225,21.63,74406.0,2.49,-28.21,-30.73,0,*7C
1502132451.83,14226,21.63,74404.0,2.51,-28.37,-30.89,0,*74
1502132453.07,14227,21.63,74404.3,2.49,-28.37,-30.77,0,*7D
1502132454.31,14228,21.63,74406.8,2.49,-28.31,-30.77,0,*74
1502132455.52,14229,21.63,74404.8,2.49,-28.37,-31.05,0,*77
1502132456.79,14230,21.63,74406.0,2.51,-28.47,-30.89,0,*74
1502132458.03,14231,21.63,74404.5,2.49,-28.31,-30.77,0,*7C
1502132459.29,14232,21.63,74404.5,2.49,-28.21,-30.73,0,*7A
1502132460.54,14233,21.63,74404.0,2.49,-28.09,-30.39,0,*7F
1502132461.78,14234,21.63,74408.0,2.51,-27.93,-30.33,0,*77
1502132463.01,14235,21.63,74408.5,2.49,-27.77,-30.17,0,*73
1502132464.29,14236,21.63,74404.8,2.51,-28.21,-30.73,0,*77
1502132465.5,14237,21.63,74406.3,2.49,-28.15,-30.45,0,*7D
1502132466.76,14238,21.63,74406.5,2.51,-28.37,-30.89,0,*7B
1502132468.02,14239,21.63,74404.3,2.51,-28.31,-30.77,0,*7D
1502132469.27,14240,21.63,74404.3,2.51,-28.09,-30.45,0,*79
1502132470.56,14241,21.63,74404.8,2.51,-28.21,-30.73,0,*77
1502132471.81,14242,21.63,74400.0,2.51,-28.31,-30.77,0,*71
1502132473.06,14243,21.63,74402.5,2.51,-28.47,-31.05,0,*75
1502132474.31,14244,21.63,74406.8,2.49,-28.47,-30.95,0,*73
1502132475.54,14245,21.63,74404.8,2.49,-28.37,-30.89,0,*78
1502132476.8,14246,21.63,74404.0,2.51,-28.37,-30.73,0,*77
1502132478.04,14247,21.63,74406.0,2.49,-28.37,-30.73,0,*7F
1502132479.28,14248,21.63,74406.3,2.49,-28.37,-30.89,0,*75
1502132480.52,14249,21.63,74406.0,2.49,-28.37,-30.77,0,*75
1502132481.76,14250,21.63,74404.8,2.49,-28.37,-30.77,0,*7D
1502132483.0,14251,21.63,74402.5,2.49,-28.37,-30.89,0,*7D
1502132484.2,14252,21.63,74400.0,2.49,-28.53,-31.05,0,*79
1502132485.44,14253,21.63,74406.3,2.49,-28.31,-30.77,0,*78
1502132486.7,14254,21.63,74406.0,2.51,-28.37,-30.89,0,*71
1502132487.98,14255,21.63,74404.3,2.51,-28.21,-30.73,0,*72
1502132489.27,14256,21.63,74402.3,2.51,-28.21,-30.73,0,*71
1502132490.55,14257,21.63,74406.8,2.51,-28.09,-30.39,0,*74
1502132491.81,14258,21.63,74406.5,2.49,-28.21,-30.61,0,*75
1502132493.08,14259,21.63,74406.0,2.51,-27.99,-30.39,0,*7C
1502132494.34,14260,21.63,74410.5,2.51,-28.15,-30.73,0,*73
1502132495.6,14261,21.63,74404.3,2.51,-28.31,-30.77,0,*70
1502132496.84,14262,21.63,74404.3,2.51,-28.31,-30.95,0,*7F
1502132498.09,14263,21.63,74404.8,2.49,-28.47,-30.95,0,*76
1502132499.32,14264,21.63,74406.0,2.49,-28.37,-30.95,0,*76
1502132500.54,14265,21.63,74404.8,2.49,-28.47,-31.05,0,*78
1502132501.77,14266,21.63,74406.5,2.49,-28.47,-31.05,0,*7B
1502132503.01,14267,21.63,74406.5,2.49,-28.47,-30.95,0,*72
1502132504.29,14268,21.63,74406.3,2.51,-28.47,-30.89,0,*79
1502132505.49,14269,21.63,74406.5,2.49,-28.53,-31.05,0,*71
1502132506.74,14270,21.63,74410.5,2.51,-28.47,-31.05,0,*75
1502132507.99,14271,21.63,74410.5,2.49,-28.47,-30.95,0,*75
1502132509.23,14272,21.63,74410.8,2.49,-28.47,-30.95,0,*76
1502132510.49,14273,21.63,74404.5,2.49,-28.47,-30.89,0,*7A
1502132511.75,14274,21.63,74408.5,2.49,-28.09,-30.61,0,*71
1502132512.98,14275,21.63,74408.5,2.49,-28.31,-30.73,0,*78
1502132514.25,14276,21.63,74408.0,2.47,-28.43,-30.95,0,*78
1502132515.52,14277,21.63,74404.8,2.47,-28.43,-30.95,0,*79
1502132516.77,14278,21.63,74408.0,2.49,-28.47,-30.95,0,*7C
1502132518.01,14279,21.63,74400.8,2.49,-28.47,-30.95,0,*7D
1502132519.25,14280,21.63,74404.5,2.49,-28.31,-30.77,0,*76
1502132520.5,14281,21.63,74404.5,2.49,-28.09,-30.39,0,*76
1502132521.74,14282,21.63,74406.3,2.49,-28.31,-30.77,0,*74
1502132522.99,14283,21.63,74404.0,2.47,-28.53,-30.95,0,*73
1502132524.22,14284,21.63,74404.0,2.47,-28.53,-31.01,0,*78
1502132525.48,14285,21.63,74408.8,2.47,-28.37,-30.77,0,*7B
1502132526.71,14286,21.63,74406.5,2.49,-28.31,-30.73,0,*74
1502132527.98,14287,21.63,74406.8,2.47,-28.43,-30.95,0,*76
1502132529.22,14288,21.63,74406.5,2.49,-28.31,-30.61,0,*79
1502132530.5,14289,21.63,74406.3,2.47,-28.59,-31.11,0,*7E
1502132531.72,14290,21.63,74404.0,2.45,-28.59,-31.01,0,*75
1502132532.98,14291,21.63,74406.3,2.47,-28.59,-31.17,0,*71
1502132534.24,14292,21.63,74406.5,2.47,-28.25,-30.67,0,*7F
1502132535.52,14293,21.63,74406.3,2.47,-28.43,-31.11,0,*7E
1502132536.74,14294,21.63,74404.8,2.47,-28.53,-31.01,0,*79
1502132538.0,14295,21.63,74406.5,2.47,-28.43,-30.83,0,*72
1502132539.26,14296,21.63,74404.3,2.47,-28.43,-30.83,0,*71
1502132540.51,14297,21.63,74404.0,2.47,-28.53,-31.11,0,*7B
1502132541.79,14298,21.63,74408.0,2.47,-28.59,-31.11,0,*7E
1502132543.02,14299,21.63,74404.0,2.47,-28.69,-31.29,0,*77
1502132544.27,14300,21.63,74406.3,2.47,-28.75,-31.29,0,*7B
1502132545.5,14301,21.63,74406.5,2.47,-28.53,-31.01,0,*74
1502132546.75,14302,21.63,74408.3,2.47,-28.53,-31.11,0,*76
1502132548.01,14303,21.63,74404.0,2.45,-28.59,-31.11,0,*7F
1502132549.24,14304,21.63,74404.3,2.45,-28.75,-31.17,0,*70
1502132550.44,14305,21.63,74408.0,2.45,-28.53,-31.01,0,*72
1502132551.68,14306,21.63,74404.5,2.45,-28.53,-31.11,0,*70
1502132552.93,14307,21.63,74406.3,2.45,-28.59,-31.11,0,*7B
1502132554.19,14308,21.63,74408.8,2.45,-28.59,-31.11,0,*74
1502132555.41,14309,21.63,74406.0,2.45,-28.53,-30.95,0,*72
1502132556.64,14310,21.63,74408.5,2.45,-28.37,-30.51,0,*70
1502132557.85,14311,21.63,74408.0,2.45,-28.15,-30.45,0,*74
1502132559.12,14312,21.63,74406.8,2.47,-28.43,-30.95,0,*7B
1502132560.36,14313,21.63,74406.8,2.45,-28.37,-30.77,0,*77
1502132561.62,14314,21.63,74404.0,2.45,-28.43,-30.77,0,*73
1502132562.82,14315,21.63,74404.8,2.45,-28.53,-31.01,0,*73
1502132564.05,14316,21.63,74404.5,2.45,-28.69,-31.11,0,*78
1502132565.26,14317,21.63,74404.8,2.45,-28.85,-31.29,0,*70
1502132566.49,14318,21.63,74404.8,2.45,-28.53,-31.11,0,*7F
1502132567.73,14319,21.63,74406.3,2.45,-28.37,-30.77,0,*7D
1502132568.97,14320,21.63,74406.3,2.43,-28.31,-30.83,0,*7C
1502132570.23,14321,21.63,74406.3,2.43,-28.63,-31.05,0,*75
1502132571.49,14322,21.63,74406.0,2.43,-28.59,-31.17,0,*7C
1502132572.7,14323,21.63,74406.3,2.45,-28.53,-31.01,0,*76
1502132573.9,14324,21.63,74406.3,2.45,-28.53,-31.01,0,*71
1502132575.11,14325,21.63,74400.8,2.45,-28.53,-31.01,0,*70
1502132576.36,14326,21.63,74404.0,2.45,-28.59,-31.11,0,*78
1502132577.59,14327,21.63,74404.8,2.45,-28.59,-31.17,0,*7F
1502132578.81,14328,21.63,74408.0,2.45,-28.37,-30.83,0,*74
1502132580.07,14329,21.63,74406.3,2.43,-28.43,-30.83,0,*70
1502132581.32,14330,21.63,74406.3,2.43,-28.47,-31.01,0,*77
1502132582.61,14331,21.63,74406.5,2.43,-28.43,-30.73,0,*76
1502132583.85,14332,21.63,74408.3,2.45,-28.21,-30.67,0,*72
1502132585.08,14333,21.63,74402.8,2.45,-28.25,-30.83,0,*7D
1502132586.3,14334,21.63,74404.3,2.45,-28.53,-30.83,0,*7B
1502132587.51,14335,21.63,74404.5,2.45,-28.37,-30.83,0,*78
1502132588.78,14336,21.63,74404.3,2.47,-28.37,-30.77,0,*72
1502132590.04,14337,21.63,74406.8,2.43,-28.43,-30.83,0,*7F
1502132591.3,14338,21.63,74406.8,2.43,-28.59,-31.01,0,*70
1502132592.58,14339,21.63,74410.0,2.43,-28.25,-30.55,0,*7A
1502132593.86,14340,21.63,74408.3,2.43,-28.47,-30.89,0,*71
1502132595.15,14341,21.63,74406.0,2.43,-28.47,-30.89,0,*70
1502132596.39,14342,21.63,74406.3,2.45,-28.21,-30.67,0,*75
1502132597.64,14343,21.63,74404.0,2.45,-28.43,-30.95,0,*7D
1502132598.92,14344,21.63,74408.3,2.43,-28.43,-30.89,0,*71
1502132600.18,14345,21.63,74408.8,2.43,-28.31,-30.55,0,*74
1502132601.43,14346,21.63,74408.5,2.45,-28.05,-30.51,0,*72
1502132602.67,14347,21.63,74406.8,2.45,-28.37,-30.77,0,*76
1502132603.9,14348,21.63,74404.0,2.45,-28.05,-30.45,0,*79
1502132605.16,14349,21.63,74410.5,2.41,-28.21,-30.51,0,*7F
1502132606.4,14350,21.63,74406.3,2.43,-28.31,-30.83,0,*7B
1502132607.67,14351,21.63,74408.0,2.43,-28.43,-30.83,0,*7F
1502132608.95,14352,21.63,74404.8,2.43,-28.47,-30.89,0,*72
1502132610.18,14353,21.63,74406.3,2.41,-28.47,-30.83,0,*7B
1502132611.43,14354,21.63,74404.0,2.43,-28.47,-31.01,0,*75
1502132612.69,14355,21.63,74406.5,2.43,-28.47,-31.05,0,*70
1502132613.92,14356,21.63,74404.8,2.41,-28.63,-31.17,0,*74
1502132615.16,14357,21.63,74406.5,2.43,-28.31,-30.83,0,*7C
1502132616.4,14358,21.63,74404.8,2.41,-28.31,-30.73,0,*7E
1502132617.65,14359,21.63,74404.5,2.41,-28.09,-30.51,0,*74
1502132618.91,14360,21.63,74404.8,2.41,-28.25,-30.55,0,*74
1502132620.17,14361,21.63,74400.5,2.41,-28.43,-30.89,0,*74
1502132621.44,14362,21.63,74406.3,2.41,-28.25,-30.73,0,*72
1502132622.68,14363,21.63,74402.5,2.41,-28.25,-30.83,0,*7C
1502132623.92,14364,21.63,74404.3,2.41,-28.31,-30.73,0,*71
1502132625.18,14365,21.63,74406.5,2.41,-28.47,-30.89,0,*74
1502132626.41,14366,21.63,74404.5,2.41,-28.59,-31.05,0,*7D
1502132627.67,14367,21.63,74404.0,2.43,-28.59,-31.05,0,*7E
1502132628.9,14368,21.63,74406.5,2.41,-28.31,-30.89,0,*78
1502132630.12,14369,21.63,74404.3,2.41,-28.31,-30.83,0,*73
1502132631.41,14370,21.63,74404.0,2.43,-28.25,-30.73,0,*73
1502132632.67,14371,21.63,74406.5,2.41,-28.25,-30.55,0,*74
1502132633.92,14372,21.63,74402.8,2.41,-28.09,-30.55,0,*79
1502132635.14,14373,21.63,74404.8,2.41,-28.31,-30.83,0,*78
1502132636.37,14374,21.63,74404.8,2.41,-28.59,-31.01,0,*7A
1502132637.59,14375,21.63,74406.0,2.41,-28.47,-31.01,0,*74
1502132638.82,14376,21.63,74404.8,2.41,-28.47,-31.01,0,*77
1502132640.08,14377,21.63,74406.3,2.43,-28.43,-30.83,0,*7B
1502132641.31,14378,21.63,74408.5,2.41,-28.47,-31.01,0,*79
1502132642.55,14379,21.63,74406.3,2.41,-28.43,-30.83,0,*77
1502132643.8,14380,21.63,74402.5,2.41,-28.47,-30.89,0,*7F
1502132645.03,14381,21.63,74406.5,2.41,-28.47,-31.01,0,*7F
1502132646.28,14382,21.63,74406.5,2.39,-28.53,-31.11,0,*77
1502132647.56,14383,21.63,74404.8,2.39,-28.63,-31.11,0,*75
1502132648.84,14384,21.63,74406.5,2.39,-28.63,-31.11,0,*72
1502132650.1,14385,21.63,74406.5,2.39,-28.31,-30.77,0,*75
1502132651.37,14386,21.63,74404.5,2.39,-28.47,-30.95,0,*7B
1502132652.63,14387,21.63,74406.3,2.39,-28.37,-30.89,0,*70
1502132653.89,14388,21.63,74408.5,2.37,-28.59,-30.95,0,*74
1502132655.12,14389,21.63,74408.3,2.37,-28.69,-31.11,0,*7B
1502132656.35,14390,21.63,74410.8,2.39,-28.53,-31.05,0,*71
1502132657.61,14391,21.63,74410.5,2.37,-28.59,-31.11,0,*71
1502132658.82,14392,21.63,74410.0,2.37,-28.69,-31.17,0,*77
1502132660.02,14393,21.63,74410.8,2.37,-28.69,-31.29,0,*7B
1502132661.23,14394,21.63,74408.3,2.35,-28.69,-31.17,0,*73
1502132662.45,14395,21.63,74408.5,2.35,-28.63,-31.01,0,*7F
1502132663.68,14396,21.63,74410.3,2.35,-28.15,-30.55,0,*7D
1502132664.91,14397,21.63,74410.8,2.35,-28.43,-30.67,0,*7E
1502132666.11,14398,21.63,74410.0,2.35,-28.53,-31.01,0,*71
1502132667.39,14399,21.63,74408.3,2.33,-28.47,-30.73,0,*77
1502132668.64,14400,21.63,74410.0,2.35,-28.43,-30.95,0,*7A
1502132669.87,14401,21.63,74404.0,2.35,-28.53,-30.95,0,*7A
1502132671.1,14402,21.63,74408.5,2.35,-28.43,-30.83,0,*7F
1502132672.35,14403,21.63,74404.8,2.33,-28.59,-31.01,0,*78
1502132673.58,14404,21.63,74408.5,2.35,-28.43,-30.67,0,*73
1502132674.84,14405,21.63,74408.8,2.33,-28.63,-31.17,0,*70
1502132676.09,14406,21.63,74404.3,2.33,-28.59,-31.01,0,*7D
1502132677.35,14407,21.63,74410.5,2.33,-28.63,-31.17,0,*72
1502132678.6,14408,21.63,74410.0,2.33,-28.47,-30.67,0,*7D
1502132679.86,14409,21.63,74410.8,2.29,-28.21,-30.45,0,*77
1502132681.1,14410,21.63,74410.5,2.33,-28.37,-30.67,0,*73
1502132682.38,14411,21.63,74408.3,2.33,-28.59,-30.89,0,*7A
1502132683.64,14412,21.63,74410.0,2.33,-28.63,-31.05,0,*75
1502132684.87,14413,21.63,74414.3,2.27,-28.69,-31.23,0,*7F
1502132686.12,14414,21.63,74410.3,2.29,-28.59,-31.01,0,*75
1502132687.37,14415,21.63,74410.0,2.29,-28.63,-31.01,0,*7D
1502132688.61,14416,21.63,74412.5,2.27,-28.53,-30.77,0,*73
1502132689.85,14417,21.63,74408.5,2.29,-28.37,-30.67,0,*7F
1502132691.08,14418,21.63,74410.0,2.29,-28.37,-30.67,0,*70
1502132692.33,14419,21.63,74410.8,2.27,-28.47,-30.95,0,*75
1502132693.58,14420,21.63,74412.8,2.27,-28.63,-30.95,0,*79
1502132694.83,14421,21.63,74408.3,2.29,-27.77,-30.01,0,*71
1502132696.06,14422,21.63,74410.0,2.29,-27.77,-30.27,0,*76
1502132697.34,14423,21.63,74406.8,2.29,-28.05,-30.51,0,*7C
1502132698.61,14424,21.63,74408.3,2.29,-28.25,-30.51,0,*79
1502132699.89,14425,21.63,74408.5,2.29,-28.25,-30.51,0,*78
1502132701.18,14426,21.63,74408.5,2.29,-28.25,-30.61,0,*78
1502132702.46,14427,21.63,74406.5,2.33,-28.43,-30.61,0,*72
1502132703.71,14428,21.63,74408.3,2.29,-28.43,-30.67,0,*70
1502132704.95,14429,21.63,74406.8,2.27,-28.37,-30.61,0,*7A
1502132706.2,14430,21.63,74406.0,2.29,-28.21,-30.45,0,*7D
1502132707.44,14431,21.63,74410.8,2.29,-28.37,-30.67,0,*7B
1502132708.72,14432,21.63,74408.0,2.29,-28.09,-30.61,0,*73
1502132709.97,14433,21.63,74408.8,2.29,-28.25,-30.45,0,*7A
1502132711.23,14434,21.63,74406.8,2.29,-28.05,-30.33,0,*7E
1502132712.49,14435,21.63,74406.0,2.29,-27.61,-29.95,0,*76
1502132713.74,14436,21.63,74408.3,2.33,-28.09,-30.45,0,*7A
1502132715.01,14437,21.63,74410.8,2.29,-28.09,-30.51,0,*75
1502132716.27,14438,21.63,74408.0,2.29,-27.89,-30.17,0,*7F
1502132717.49,14439,21.63,74404.8,2.29,-27.93,-30.27,0,*76
1502132718.75,14440,21.63,74408.8,2.29,-28.05,-30.33,0,*7D
1502132720.04,14441,21.63,74410.0,2.33,-28.25,-30.61,0,*72
1502132721.3,14442,21.63,74408.8,2.33,-28.05,-30.33,0,*74
1502132722.57,14443,21.63,74406.8,2.29,-28.25,-30.51,0,*78
1502132723.83,14444,21.63,74404.8,2.27,-28.25,-30.55,0,*75
1502132725.08,14445,21.63,74408.0,2.29,-28.59,-31.01,0,*71
1502132726.33,14446,21.63,74406.0,2.29,-28.63,-31.17,0,*7C
1502132727.58,14447,21.63,74404.8,2.29,-28.63,-31.05,0,*7E
1502132728.83,14448,21.63,74408.0,2.29,-28.63,-31.05,0,*71
1502132730.08,14449,21.63,74410.5,2.29,-28.63,-31.05,0,*70
1502132731.33,14450,21.63,74404.8,2.29,-28.63,-31.01,0,*7C
1502132732.57,14451,21.63,74406.5,2.27,-28.79,-31.29,0,*72
1502132733.78,14452,21.63,74404.3,2.27,-28.85,-31.29,0,*72
1502132735.01,14453,21.63,74406.0,2.23,-28.91,-31.45,0,*78
1502132736.24,14454,21.63,74404.8,2.23,-28.69,-31.11,0,*79
1502132737.5,14455,21.63,74406.0,2.25,-28.53,-30.95,0,*7A
1502132738.76,14456,21.63,74406.0,2.25,-28.53,-30.77,0,*75
1502132740.02,14457,21.63,74402.5,2.25,-28.43,-30.67,0,*74
1502132741.31,14458,21.63,74406.8,2.25,-28.43,-30.77,0,*7A
1502132742.54,14459,21.63,74404.8,2.25,-28.53,-31.05,0,*7E
1502132743.82,14460,21.63,74402.5,2.25,-28.47,-30.73,0,*71
1502132745.05,14461,21.63,74404.8,2.25,-28.69,-31.05,0,*7C
1502132746.33,14462,21.63,74406.0,2.25,-28.47,-30.77,0,*77
1502132747.61,14463,21.63,74406.0,2.25,-28.63,-31.11,0,*71
1502132748.86,14464,21.63,74406.5,2.25,-28.63,-31.05,0,*73
1502132750.12,14465,21.63,74408.8,2.23,-28.59,-31.11,0,*78
1502132751.36,14466,21.63,74406.3,2.23,-28.53,-30.77,0,*70
1502132752.59,14467,21.63,74406.5,2.23,-28.31,-30.73,0,*71
1502132753.84,14468,21.63,74406.5,2.23,-28.47,-30.61,0,*7C
1502132755.05,14469,21.63,74406.5,2.23,-28.53,-30.83,0,*74
1502132756.31,14470,21.63,74408.0,2.23,-28.47,-30.77,0,*72
1502132757.55,14471,21.63,74404.8,2.23,-28.53,-30.77,0,*76
1502132758.75,14472,21.63,74404.0,2.23,-28.69,-31.01,0,*7C
1502132760.0,14473,21.63,74404.8,2.23,-28.75,-31.11,0,*71
1502132761.23,14474,21.63,74406.0,2.23,-28.75,-31.29,0,*7D
1502132762.43,14475,21.63,74408.0,2.23,-28.69,-31.17,0,*7C
1502132763.69,14476,21.63,74404.8,2.21,-28.59,-31.01,0,*79
1502132764.92,14477,21.63,74406.3,2.21,-28.53,-31.01,0,*72
1502132766.2,14478,21.63,74404.3,2.21,-28.75,-31.11,0,*78
1502132767.49,14479,21.63,74410.0,2.21,-28.59,-31.11,0,*77
1502132768.73,14480,21.63,74404.0,2.21,-28.53,-30.83,0,*71
1502132770.01,14481,21.63,74404.3,2.21,-28.47,-30.77,0,*7E
1502132771.26,14482,21.63,74400.5,2.21,-28.53,-30.83,0,*73
1502132772.5,14483,21.63,74404.8,2.21,-28.53,-30.83,0,*72
1502132773.73,14484,21.63,74406.3,2.21,-28.15,-30.45,0,*7D
1502132775.01,14485,21.63,74404.3,2.21,-28.21,-30.55,0,*7A
1502132776.27,14486,21.63,74408.8,2.21,-28.05,-30.45,0,*7E
1502132777.52,14487,21.63,74404.0,2.21,-28.31,-30.55,0,*79
1502132778.81,14488,21.63,74406.3,2.21,-28.21,-30.73,0,*73
1502132780.07,14489,21.63,74406.3,2.23,-28.47,-30.73,0,*70
1502132781.33,14490,21.63,74404.5,2.23,-28.21,-30.73,0,*78
1502132782.54,14491,21.63,74404.0,2.23,-28.53,-30.83,0,*73
1502132783.83,14492,21.63,74406.0,2.21,-28.47,-30.77,0,*7C
1502132785.09,14493,21.63,74408.8,2.21,-28.31,-30.73,0,*78
1502132786.35,14494,21.63,74406.5,2.21,-28.59,-30.83,0,*7E
1502132787.6,14495,21.63,74404.8,2.21,-28.53,-30.83,0,*75
1502132788.83,14496,21.63,74404.0,2.23,-28.37,-30.73,0,*79
1502132790.1,14497,21.63,74404.5,2.21,-28.37,-30.77,0,*7E
1502132791.33,14498,21.63,74402.5,2.21,-28.69,-31.17,0,*7D
1502132792.58,14499,21.63,74402.0,2.21,-28.75,-31.33,0,*77
1502132793.84,14500,21.63,74404.3,2.21,-28.59,-31.01,0,*79
1502132795.11,14501,21.63,74406.3,2.21,-28.37,-30.77,0,*70
1502132796.34,14502,21.63,74406.0,2.23,-28.37,-30.73,0,*75
1502132797.58,14503,21.63,74404.3,2.23,-28.37,-30.61,0,*77
1502132798.81,14504,21.63,74406.8,2.23,-28.31,-30.61,0,*76
1502132800.09,14505,21.63,74404.0,2.21,-28.47,-30.77,0,*73
1502132801.39,14506,21.63,74404.0,2.21,-28.21,-30.61,0,*77
1502132802.65,14507,21.63,74404.8,2.23,-28.21,-30.61,0,*74
1502132803.91,14508,21.63,74404.0,2.21,-28.47,-30.83,0,*75
1502132805.15,14509,21.63,74402.3,2.21,-28.53,-30.83,0,*71
1502132806.42,14510,21.63,74404.8,2.21,-28.37,-30.77,0,*70
1502132807.7,14511,21.63,74406.5,2.21,-28.47,-30.77,0,*76
1502132808.96,14512,21.63,74402.5,2.19,-28.63,-31.23,0,*78
1502132810.22,14513,21.63,74400.3,2.21,-28.31,-30.61,0,*72
1502132811.47,14514,21.63,74402.3,2.21,-28.15,-30.55,0,*74
1502132812.7,14515,21.63,74406.0,2.23,-28.31,-30.61,0,*76
1502132813.98,14516,21.63,74404.8,2.25,-28.09,-30.39,0,*75
1502132815.21,14517,21.63,74406.0,2.23,-28.31,-30.61,0,*74
1502132816.44,14518,21.63,74404.3,2.21,-28.15,-30.45,0,*79
1502132817.67,14519,21.63,74404.0,2.23,-28.31,-30.61,0,*7A
1502132818.9,14520,21.63,74406.5,2.23,-28.31,-30.73,0,*73
1502132820.16,14521,21.63,74404.5,2.23,-28.59,-31.11,0,*79
1502132821.37,14522,21.63,74404.8,2.23,-28.53,-30.83,0,*7A
1502132822.6,14523,21.63,74404.8,2.23,-28.59,-30.83,0,*71
1502132823.84,14524,21.63,74404.8,2.23,-28.37,-30.73,0,*71
1502132825.1,14525,21.63,74404.0,2.25,-28.25,-30.67,0,*70
1502132826.34,14526,21.63,74406.3,2.23,-28.37,-30.73,0,*73
1502132827.6,14527,21.63,74404.8,2.25,-28.43,-30.67,0,*72
1502132828.85,14528,21.63,74402.5,2.25,-28.31,-30.55,0,*79
1502132830.11,14529,21.63,74402.8,2.23,-28.25,-30.73,0,*7F
1502132831.34,14530,21.63,74404.5,2.25,-28.53,-31.05,0,*70
1502132832.57,14531,21.63,74404.8,2.23,-28.75,-31.17,0,*70
1502132833.79,14532,21.63,74406.5,2.23,-28.47,-31.01,0,*75
1502132835.03,14533,21.63,74404.3,2.23,-28.37,-30.77,0,*73
1502132836.25,14534,21.63,74404.3,2.23,-28.59,-31.01,0,*7C
1502132837.48,14535,21.63,74408.0,2.25,-28.69,-31.05,0,*7C
1502132838.71,14536,21.63,74406.5,2.23,-28.69,-31.11,0,*7C
1502132840.0,14537,21.63,74406.3,2.25,-28.43,-30.77,0,*72
1502132841.25,14538,21.56,74400.5,2.23,-28.59,-31.11,0,*71
1502132842.48,14539,21.63,74408.3,2.23,-28.31,-30.73,0,*7B
1502132843.71,14540,21.63,74404.8,2.23,-28.59,-31.01,0,*7F
1502132844.93,14541,21.63,74404.0,2.23,-28.47,-31.01,0,*71
1502132846.16,14542,21.63,74404.5,2.23,-28.31,-30.61,0,*74
1502132847.44,14543,21.63,74406.0,2.25,-28.25,-30.55,0,*71
1502132848.73,14544,21.63,74406.8,2.21,-28.59,-30.77,0,*79
1502132849.96,14545,21.63,74410.5,2.23,-28.59,-31.01,0,*7A
1502132851.18,14546,21.63,74406.8,2.23,-28.75,-31.17,0,*70
1502132852.4,14547,21.63,74404.8,2.23,-28.53,-30.83,0,*79
1502132853.65,14548,21.63,74408.3,2.23,-28.47,-30.73,0,*7C
1502132854.9,14549,21.63,74404.0,2.23,-28.47,-30.73,0,*7D
1502132856.13,14550,21.63,74404.8,2.23,-28.59,-31.01,0,*7E
1502132857.38,14551,21.63,74406.5,2.23,-28.47,-30.77,0,*70
1502132858.62,14552,21.63,74410.3,2.23,-28.31,-30.73,0,*76
1502132859.82,14553,21.63,74406.5,2.23,-28.15,-30.45,0,*74
1502132861.07,14554,21.63,74408.8,2.23,-28.21,-30.55,0,*75
1502132862.3,14555,21.63,74408.0,2.21,-27.89,-30.27,0,*7E
1502132863.52,14556,21.63,74406.0,2.23,-27.99,-30.27,0,*7E
1502132864.78,14557,21.63,74404.3,2.23,-28.21,-30.55,0,*76
1502132866.04,14558,21.63,74404.0,2.25,-28.31,-30.73,0,*7A
1502132867.27,14559,21.63,74406.0,2.23,-28.59,-31.17,0,*70
1502132868.49,14560,21.63,74408.0,2.23,-28.59,-31.01,0,*7D
1502132869.74,14561,21.63,74406.5,2.25,-28.69,-30.95,0,*75
1502132870.94,14562,21.63,74406.8,2.23,-28.69,-31.01,0,*7C
1502132872.16,14563,21.63,74404.3,2.23,-28.53,-30.83,0,*7F
1502132873.39,14564,21.63,74408.0,2.23,-28.75,-31.17,0,*70
1502132874.61,14565,21.63,74406.5,2.23,-28.75,-31.01,0,*76
1502132875.87,14566,21.63,74410.8,2.21,-28.53,-31.11,0,*72
1502132877.12,14567,21.63,74408.0,2.21,-27.99,-30.23,0,*7A
1502132878.4,14568,21.63,74406.8,2.21,-27.99,-30.39,0,*7E
1502132879.66,14569,21.63,74408.0,2.21,-27.99,-30.45,0,*74
1502132880.94,14570,21.63,74408.8,2.21,-28.47,-30.73,0,*75
1502132882.19,14571,21.63,74408.5,2.21,-28.15,-30.55,0,*77
1502132883.47,14572,21.63,74408.3,2.21,-28.47,-30.73,0,*77
1502132884.67,14573,21.63,74410.5,2.23,-28.15,-30.45,0,*76
1502132885.92,14574,21.63,74406.5,2.21,-28.53,-30.83,0,*7B
1502132887.2,14575,21.63,74408.0,2.21,-28.59,-31.11,0,*7A
1502132888.43,14576,21.56,74402.8,2.21,-28.69,-31.17,0,*7C
1502132889.69,14577,21.63,74404.8,2.21,-28.75,-31.17,0,*70
1502132890.95,14578,21.63,74408.0,2.19,-28.79,-31.23,0,*7F
1502132892.18,14579,21.63,74408.8,2.19,-28.63,-31.17,0,*72
1502132893.44,14580,21.63,74406.8,2.19,-28.43,-30.77,0,*71
1502132894.67,14581,21.63,74408.5,2.19,-28.53,-30.89,0,*70
1502132895.9,14582,21.63,74404.8,2.19,-28.75,-31.17,0,*71
1502132897.13,14583,21.63,74406.3,2.19,-28.47,-30.83,0,*7D
1502132898.36,14584,21.63,74410.5,2.19,-28.79,-31.17,0,*7B
1502132899.62,14585,21.63,74408.3,2.19,-28.59,-30.89,0,*7E
1502132900.86,14586,21.63,74410.8,2.19,-28.25,-30.67,0,*76
1502132902.06,14587,21.63,74406.0,2.19,-27.93,-30.27,0,*71
1502132903.29,14588,21.63,74404.0,2.19,-28.21,-30.45,0,*7C
1502132904.54,14589,21.63,74406.3,2.19,-28.09,-30.51,0,*72
1502132905.8,14590,21.63,74406.5,2.19,-28.09,-30.61,0,*79
1502132907.04,14591,21.63,74410.5,2.19,-28.37,-30.61,0,*75